This demonstration page uses our WeatherBlox Daily Observations layout. Learn more.

Left ArrowRight Arrow

Hourly Observations for February 1, 2015

Temp ( °F °C ) Dew Point ( °F °C ) Humidity (%) Winds ( mph kmh ) Pressure ( in mb ) Visibility ( mi km ) Precip ( " mm )
12:43 am 00:43 Cloudy with Light Rain 48 8.9 47 8.3 96 96 WSW 6 9 29.94 1014 3 4 0.01 0.25
12:51 am 00:51 Cloudy with Light Rain 48 8.9 47 8.3 96 96 WSW 3 6 29.91 1013 3 4 0.01 0.25
12:58 am 00:58 Cloudy with Light Rain 48 8.9 47 8.3 96 96 W 3 6 29.94 1014 5 8 N/A
1:51 am 01:51 Cloudy with Mist and Fog 48 8.9 47 8.3 96 96 NNW 3 6 29.92 1013 3 5 N/A
1:58 am 01:58 Cloudy with Mist and Fog 48 8.9 47 8.3 96 96 NNW 6 9 29.94 1014 2 3 N/A
2:15 am 02:15 Mostly Cloudy with Fog 48 8.9 47 8.3 96 96 N N/A 29.94 1014 0 0 N/A
2:51 am 02:51 Cloudy with Fog 47 8.3 46 7.8 97 97 WSW 3 6 29.93 1014 1 1 N/A
3:07 am 03:07 Cloudy with Fog 46 8 46 8 100 100 N N/A 30.00 1016 0 0 N/A
3:37 am 03:37 Cloudy with Fog 47 8.3 46 7.8 97 97 N N/A 30.00 1016 0 0 N/A
3:51 am 03:51 Mostly Cloudy with Fog 47 8.3 46 7.8 97 97 N N/A 29.94 1014 1 1 N/A
4:20 am 04:20 Mostly Cloudy with Mist and Fog 47 8.3 47 8.3 100 100 N N/A 30.00 1016 1 2 N/A
4:41 am 04:41 Cloudy with Mist and Fog 47 8.3 46 7.8 97 97 N N/A 30.00 1016 3 5 N/A
4:51 am 04:51 Cloudy with Mist and Fog 47 8.3 46 7.8 97 97 WSW 3 6 29.96 1014 6 10 N/A
5:03 am 05:03 Cloudy with Mist and Fog 47 8.3 47 8.3 100 100 N N/A 30.00 1016 2 3 N/A
5:08 am 05:08 Cloudy with Mist and Fog 47 8.3 47 8.3 100 100 SW 3 6 30.00 1016 1 1 N/A
5:26 am 05:26 Cloudy with Mist and Fog 46 8 46 8 100 100 VRB 3 6 30.00 1016 2 2 N/A
5:34 am 05:34 Cloudy with Mist and Fog 47 8.3 46 7.8 97 97 N N/A 30.00 1016 3 5 N/A
5:51 am 05:51 Cloudy with Mist and Fog 47 8.3 46 7.8 97 97 NNW 3 6 29.97 1015 4 6 N/A
6:00 am 06:00 Cloudy with Mist and Fog 47 8.3 46 7.8 97 97 NNW 3 6 30.03 1017 2 3 N/A
6:18 am 06:18 Cloudy with Mist and Fog 47 8.3 46 7.8 97 97 NW 5 7 30.03 1017 3 5 N/A
6:26 am 06:26 Cloudy with Mist and Fog 47 8.3 46 7.8 97 97 NW 5 7 30.03 1017 2 3 N/A
6:51 am 06:51 Cloudy with Mist and Fog 46 7.8 45 7.2 96 96 N 3 6 30.00 1016 1 2 N/A
7:35 am 07:35 Mostly Cloudy with Fog 46 7.8 45 7.2 96 96 N N/A 30.06 1018 0 0 N/A
7:51 am 07:51 Mostly Cloudy with Fog 46 7.8 45 7.2 96 96 W 3 6 30.02 1017 5 8 N/A
8:51 am 08:51 Cloudy with Mist and Fog 47 8.3 46 7.8 97 97 N N/A 30.03 1017 1 1 N/A
8:56 am 08:56 Cloudy with Mist and Fog 47 8.3 46 7.8 97 97 N N/A 30.09 1019 2 3 N/A
9:05 am 09:05 Cloudy 47 8.3 46 7.8 97 97 N N/A 30.09 1019 9 14 N/A
9:19 am 09:19 Cloudy 47 8.3 46 7.8 97 97 N N/A 30.09 1019 9 14 N/A
9:44 am 09:44 Cloudy 48 8.9 46 7.8 93 93 N N/A 30.12 1020 10 16 N/A
9:51 am 09:51 Cloudy 48 8.9 47 8.3 96 96 N N/A 30.07 1018 10 16 N/A
10:25 am 10:25 Cloudy 48 8.9 46 7.8 93 93 SW 5 7 30.12 1020 10 16 N/A
10:34 am 10:34 Cloudy 49 9.4 47 8.3 93 93 SW 6 9 30.12 1020 10 16 N/A
10:51 am 10:51 Cloudy 49 9.4 47 8.3 93 93 WSW 6 9 30.08 1019 10 16 N/A
11:08 am 11:08 Cloudy 50 10 47 8.3 89 89 VRB 3 6 30.12 1020 10 16 N/A
11:51 am 11:51 Cloudy 51 10.6 46 7.8 83 83 W 7 11 30.08 1019 10 16 N/A
12:22 pm 12:22 Cloudy 53 11.7 47 8.3 80 80 W 6 9 30.09 1019 10 16 N/A
12:51 pm 12:51 Mostly Cloudy 54 12.2 46 7.8 75 75 NW 7 11 30.05 1018 10 16 N/A
1:14 pm 13:14 Partly Cloudy 55 12.8 46 7.8 72 72 VRB 3 6 30.03 1017 10 16 N/A
1:51 pm 13:51 Mostly Sunny 56 13.3 46 7.8 70 70 NW 5 7 30.02 1017 10 16 N/A
2:51 pm 14:51 Sunny 57 13.9 44 6.7 62 62 SSW 3 6 29.99 1016 10 16 N/A
3:51 pm 15:51 Sunny 59 15 43 6.1 56 56 VRB 3 6 29.99 1016 10 16 N/A
4:51 pm 16:51 Sunny 59 15 43 6.1 56 56 WNW 3 6 30.00 1016 10 16 N/A
5:51 pm 17:51 Clear 57 13.9 44 6.7 62 62 N N/A 30.01 1016 10 16 N/A
6:51 pm 18:51 Clear 53 11.7 46 7.8 77 77 N N/A 30.03 1017 10 16 N/A
7:51 pm 19:51 Clear 50 10 45 7.2 83 83 NE 5 7 30.06 1018 10 16 N/A
8:51 pm 20:51 Clear 49 9.4 44 6.7 83 83 ENE 3 6 30.08 1019 10 16 N/A
9:51 pm 21:51 Clear 46 7.8 43 6.1 89 89 E 6 9 30.09 1019 10 16 N/A
10:51 pm 22:51 Clear 46 7.8 42 5.6 86 86 SE 3 6 30.11 1020 10 16 N/A
11:51 pm 23:51 Clear 44 6.7 42 5.6 93 93 ENE 3 6 30.11 1020 10 16 N/A

Powered by AerisWeather